Regional Weather Roundup
Issued by NWS

Home | Current Version | Previous Version | Graphics & Text | Print | Product List | Glossary On
Versions: 1 2 3 4 5 6 7 8 9 10 11 12 13 14 15 16 17 18 19 20 21 22 23 24 25 26 27 28 29 30 31 32 33 34 35 36 37 38 39 40 41 42 43 44 45 46 47 48 49 50
000
ASUS43 KDMX 231908
RWRIA

WEATHER ROUNDUP FOR IOWA
NATIONAL WEATHER SERVICE DES MOINES IA
200 PM CDT MON MAY 23 2016

NOTE: "FAIR" INDICATES FEW OR NO CLOUDS BELOW 12,000 FEET WITH NO
SIGNIFICANT WEATHER AND/OR OBSTRUCTIONS TO VISIBILITY.

* - THESE STATIONS ARE NOT NWS STATIONS...THUS NOT UNDER NWS
QUALITY CONTROL.  THEY ALSO DO NOT REPORT WEATHER SUCH
AS PRECIPITATION OR FOG.

IAZ001>003-012>014-020>022-031>034-043>046-232000-
   NORTHWEST IOWA

CITY           SKY/WX    TMP DP  RH WIND       PRES   REMARKS
CARROLL *      LGT RAIN  68  64  88 SW14      29.83R
CHEROKEE *     CLOUDY    75  68  78 S13       29.76F
DENISON *      CLOUDY    68  63  83 SE17G26   29.74F HAZE
LE MARS *      CLOUDY    75  68  78 SW13G18   29.75F
ORANGE CITY *  PTSUNNY   73  66  78 SW10      29.76F
SHELDON *      CLOUDY    72  66  83 S15       29.75F
SIOUX CITY     CLOUDY    79  68  69 SW12      29.73F HX  81
SPENCER        CLOUDY    74  63  68 S17       29.77S
STORM LAKE *   SUNNY     73  63  68 S14G21    29.79R
$$

IAZ055>058-069>071-079>083-090>094-232000-
   SOUTHWEST IOWA

CITY           SKY/WX    TMP DP  RH WIND       PRES   REMARKS
ATLANTIC *     CLOUDY    75  63  64 VRB7G18   29.84R
AUDUBON *      HVY RAIN  63  57  82 CALM      29.86R
CLARINDA *       N/A     72  63  73 MISG      29.87R
COUNCIL BLFS * LGT RAIN  72  66  83 VRB5G17   29.76F
CRESTON *      PTSUNNY   66  63  88 S15G21    29.89S
LAMONI         CLOUDY    68  60  75 S10       29.91R
RED OAK *      MOSUNNY   75  63  64 SE15G22   29.81F
SHENANDOAH *   MOSUNNY   75  63  64 SE18G25   29.80F
$$

IAZ047>049-059>061-072>074-084-232000-
   CENTRAL IOWA

CITY           SKY/WX    TMP DP  RH WIND       PRES   REMARKS
AMES           CLOUDY    76  60  57 S24G31    29.83F
ANKENY *       CLOUDY    79  63  57 S14G23    29.84F HX  80
BOONE *        PTSUNNY   79  61  53 S21G26    29.81F HX  80
CHARITON *     PTSUNNY   79  57  47 S21G28    29.88F HX  80
DES MOINES     CLOUDY    78  59  51 S21G29    29.86F
GRINNELL*      MOSUNNY   82  55  39 S21G28    29.86F HX  82
KNOXVILLE *    MOSUNNY   81  57  44 S17G24    29.86F HX  81
MARSHALLTOWN   MOSUNNY   82  57  42 S24G32    29.83F HX  82
NEWTON *       PTSUNNY   79  57  47 S23       29.85F HX  80
PERRY *        CLOUDY    75  66  73 S25       29.83R
$$

IAZ004>006-015-016-023>025-035-036-232000-
   NORTH CENTRAL IOWA

CITY           SKY/WX    TMP DP  RH WIND       PRES   REMARKS
ALGONA *       PTSUNNY   68  61  77 S24G30    29.80F
ESTHERVILLE    PTSUNNY   73  62  68 S24G32    29.77F
FORT DODGE *   CLOUDY    66  61  82 S3        29.82F THUNDER
MASON CITY     CLOUDY    74  59  59 S13       29.84F
FOREST CITY *  LGT RAIN  66  59  77 S16G29    29.81F
WEBSTER CITY * LGT RAIN  68  66  94 W14G21    29.81S
IOWA FALLS *   PTSUNNY   81  61  50 S21G29    29.84F HX  81
$$

IAZ007>011-017>019-026>030-037>042-050>054-066-232000-
   NORTHEAST IOWA

CITY           SKY/WX    TMP DP  RH WIND       PRES   REMARKS
CEDAR RAPIDS   SUNNY     83  50  31 S22G28    29.89F HX  81
CHARLES CITY * MOSUNNY   82  54  36 S22G30    29.83F HX  81
CLINTON *      CLOUDY    83  48  29 SW17G23   29.92F HX  81
DECORAH *      SUNNY     81  50  34 S18G29    29.85F HX  80
DUBUQUE        CLOUDY    80  47  31 S21G26    29.92F
MONTICELLO *   SUNNY     84  45  24 S18G30    29.90F HX  82
OELWEIN *      MOSUNNY   82  52  34 S22G33    29.87F HX  81
WATERLOO       MOSUNNY   84  55  36 S21       29.83F HX  83
$$

IAZ064-065-067-068-078-232000-
   EAST CENTRAL IOWA

CITY           SKY/WX    TMP DP  RH WIND       PRES   REMARKS
DAVENPORT      CLOUDY    85  45  24 S14       29.93F HX  82
IOWA CITY      SUNNY     84  47  27 S20       29.91F HX  82
MT. PLEASANT * SUNNY     86  46  25 S16G23    29.92F HX  83
MUSCATINE *    SUNNY     84  46  26 S15G24    29.92F HX  82
QUAD CITIES    CLOUDY    84  47  27 S15       29.91F HX  82
$$

IAZ062-063-075>077-085>089-095>099-232000-
   SOUTHEAST IOWA

CITY           SKY/WX    TMP DP  RH WIND       PRES   REMARKS
BURLINGTON     SUNNY     83  50  31 S16G24    29.92F HX  81
FAIRFIELD *      N/A    N/A N/A N/A MISG        N/A
FORT MADISON * SUNNY     82  48  30 S14       29.94S HX  81
KEOKUK *       SUNNY     81  50  34 S12G22    29.92F HX  80
OSKALOOSA *      N/A     82  52  34 S17G25    29.89F HX  81
OTTUMWA        MOSUNNY   80  55  42 S18G25    29.89F HX  80
WASHINGTON *   SUNNY     84  46  26 S20G28    29.91F HX  82
$$

ABBREVIATIONS USED IN REMARKS
   TC - TEMPERATURES IN CELSIUS
  WCI - WIND CHILL INDEX
   HX - HEAT INDEX
  VSB - VISIBILITY
$$




USA.gov is the U.S. government's official web portal to all federal, state and local government web resources and services.